Вернуться в каталог

STARLINK-37612

АктивенСвязьSSO
NORAD 69039·PAYLOAD·🇺🇸 United States

Запущен May 6, 2026 с Vandenberg Space Force Base

Loading…

Ближайшие Пролёты (ближайшие 24 часа)

TLE

СвежийSource: CelesTrak SupGP

Эпоха: Sep 15, 2026, 03:37 UTC

1 69039C 26101Q   26258.15118056 -.00027751  00000+0 -86119-3 0  2586
2 69039  97.2854 111.6661 0002368  93.6997 358.2170 15.33461317    19

Отслеживайте STARLINK-37612 в реальном времени с AllMySat

Download on the App Store